INMARSAT GX5

Last updated on Wed May 14 2025 00:02:45 GMT+0000 (Coordinated Universal Time)

1 44801U 19080B 25133.59626707 .00000092 00000+0 00000+0 0 9990 2 44801 0.0482 23.8205 0002046 27.5204 45.9293 1.00271753 2780
UTC large
Height (km)
Speed (km/s)
/
Latitude / Longitude
Inclination (degrees)
Orbital Period (minutes)
Azimuth
Elevation
Range (km)
Doppler Factor

Next 0 passes for location: London (51.5072 / 0.1276)

Sorry there are no passes over London.